This demonstration page uses our WeatherBlox Daily Observations layout. Learn more.

36.17497, -115.13722

Hourly Observations for August 16, 2018

Temp ( °F °C ) Dew Point ( °F °C ) Humidity (%) Winds ( mph kmh ) Pressure ( in mb ) Visibility ( mi km ) Precip ( " mm )
12:53 am 00:53 Clear 87 30.6 54 12.2 32 32 E 14 22 29.93 1014 10 16.0934 0 0
1:53 am 01:53 Clear 85 29.4 53 11.7 33 33 ESE 7 11 29.93 1014 10 16.0934 0 0
2:53 am 02:53 Clear 85 29.4 54 12.2 35 35 Calm 29.93 1014 10 16.0934 0 0
3:53 am 03:53 Clear 85 29.4 54 12.2 35 35 Calm 29.93 1014 10 16.0934 0 0
4:53 am 04:53 Clear 84 28.9 54 12.2 36 36 Calm 29.94 1014 10 16.0934 0 0
5:53 am 05:53 Clear 83 28.3 54 12.2 37 37 E 5 7 29.96 1015 10 16.0934 0 0
6:53 am 06:53 Sunny 83 28.3 55 12.8 38 38 E 6 9 29.99 1016 10 16.0934 0 0
7:53 am 07:53 Sunny 85 29.4 56 13.3 37 37 SE 5 7 30.01 1016 10 16.0934 0 0
8:53 am 08:53 Sunny 86 30 59 15 40 40 ESE 7 11 30.01 1016 10 16.0934 0 0
9:53 am 09:53 Sunny 89 31.7 60 15.6 38 38 ESE 5 7 30.01 1016 10 16.0934 0 0
10:53 am 10:53 Sunny 91 32.8 60 15.6 35 35 SE 10 17 30.01 1016 10 16.0934 0 0
11:53 am 11:53 Sunny 93 33.9 58 14.4 31 31 VRB 5 7 29.99 1016 10 16.0934 0 0
12:53 pm 12:53 Sunny 95 35 59 15 30 30 E 5 7 29.98 1015 10 16.0934 0 0
1:53 pm 13:53 Sunny 97 36.1 58 14.4 27 27 SE 8 13 29.96 1015 10 16.0934 0 0
2:53 pm 14:53 Sunny 95 35 58 14.4 29 29 SSW 20 31 29.96 1014 10 16.0934 0 0
3:06 pm 15:06 Sunny 94 34.4 57 13.9 29 29 WSW 22 35 29.83 1010 10 16.0934 0 0
3:53 pm 15:53 Sunny 92 33.3 58 14.4 32 32 W 12 19 29.94 1014 10 16.0934 0 0
4:53 pm 16:53 Sunny 95 35 57 13.9 28 28 S 7 11 29.92 1013 10 16.0934 0 0
5:53 pm 17:53 Sunny 95 35 56 13.3 27 27 SSW 9 15 29.93 1014 10 16.0934 0 0
6:53 pm 18:53 Sunny 94 34.4 57 13.9 29 29 SW 6 9 29.94 1014 10 16.0934 0 0
7:53 pm 19:53 Clear 94 34.4 57 13.9 29 29 S 8 13 29.95 1014 10 16.0934 0 0
8:53 pm 20:53 Clear 92 33.3 56 13.3 30 30 S 8 13 29.97 1015 10 16.0934 0 0
9:53 pm 21:53 Clear 91 32.8 56 13.3 31 31 SSW 6 9 29.98 1015 10 16.0934 0 0
10:53 pm 22:53 Clear 89 31.7 56 13.3 33 33 Calm 29.98 1015 10 16.0934 0 0
11:53 pm 23:53 Clear 86 30 56 13.3 36 36 ESE 5 7 29.99 1016 10 16.0934 0 0

Powered by AerisWeather